Weather History for Monte Cimone, Italy

Change the Weather History Date:

Wednesday, August 28, 2013

  Actual Average Record
Temperature  
Mean Temperature 50 °F -  
Max Temperature 53 °F 50 °F 69 °F (2007)
Min Temperature 46 °F 41 °F 30 °F (1998)
Degree Days  
Heating Degree Days 16    
Moisture  
Dew Point 43 °F    
Average Humidity 77    
Maximum Humidity 100    
Minimum Humidity 61    
Precipitation  
Precipitation 0.00 in 0.10 in - ()
Sea Level Pressure  
Sea Level Pressure 30.11 in    
Wind  
Wind Speed 10 mph ()    
Max Wind Speed 27 mph    
Max Gust Speed -    
Visibility 8.3 miles    
Events Fog    
Averages and records for this station are not official NWS values.
T = Trace of Precipitation, MM = Missing Value Source: Averaged Metar Reports

Daily Weather History Graph

Daily Weather History Graph

Search for Another Location

Airport:

Trip Planner

Search our weather history database for the weather conditions in past years. The results will help you decide how hot, cold, wet, or windy it might be!

Date:

Astronomy

Aug. 28, 2013 Rise Set
Actual Time 6:35 AM CEST 8:00 PM CEST
Civil Twilight 6:05 AM CEST 8:30 PM CEST
Nautical Twilight 5:28 AM CEST 9:06 PM CEST
Astronomical Twilight 4:50 AM CEST 9:45 PM CEST
Moon No Moon Rise 2:29 PM CEST (8/28)
Length of Visible Light 14h 25m
Length of Day
13h 24m
Waning Gibbous, 50% of the Moon is Illuminated
Aug 28
Waning Gibbous
Sep 5
New
Sep 12
First Quarter
Sep 19
Full
Sep 27
Last Quarter

Hourly Weather History & Observations

Time (CEST) Temp. Windchill Dew Point Humidity Pressure Visibility Wind Dir Wind Speed Gust Speed Precip Events Conditions
12:00 AM 48 °F - 40 °F 66%  in 19 mi WSW 22.4 mph - -  
12:55 AM 48.2 °F - 39.2 °F 71% 30.04 in - West 10.4 mph - N/A   Clear
1:00 AM 48 °F - 40 °F 64%  in 19 mi West 20.1 mph - -  
1:55 AM 48.2 °F - 41.0 °F 76% 30.04 in - SW 10.4 mph - N/A   Clear
2:00 AM 48 °F - 41 °F 68%  in 19 mi SW 20.1 mph - -  
2:55 AM 48.2 °F - 41.0 °F 76% 30.04 in - WNW 9.2 mph - N/A   Clear
3:00 AM 48 °F - 41 °F 69%  in 19 mi WNW 17.9 mph - -  
3:55 AM 48.2 °F - 39.2 °F 71% 30.04 in 6.2 mi West 8.1 mph - N/A   Scattered Clouds
4:00 AM 48 °F - 39 °F 61%  in 19 mi West 8.1 mph - -   Partly Cloudy
4:55 AM 46.4 °F 42.9 °F 41.0 °F 81% 30.04 in 6.2 mi WNW 6.9 mph - N/A   Partly Cloudy
5:55 AM 46.4 °F 42.9 °F 41.0 °F 81% 30.04 in 6.2 mi West 6.9 mph - N/A   Mostly Cloudy
6:55 AM 46.4 °F 40.7 °F 41.0 °F 81% 30.04 in 6.2 mi West 12.7 mph - N/A   Scattered Clouds
7:00 AM 47 °F - 40 °F 70%  in 19 mi West 12.7 mph - -   Partly Cloudy
7:55 AM 48.2 °F - 41.0 °F 76% 30.06 in 6.2 mi West 13.8 mph - N/A   Scattered Clouds
8:00 AM 48 °F - 41 °F 68%  in 19 mi West 26.8 mph - -   Partly Cloudy
8:55 AM 48.2 °F - 41.0 °F 76% 30.06 in 6.2 mi West 12.7 mph - N/A   Scattered Clouds
9:00 AM 49 °F - 41 °F 67%  in 19 mi West 12.7 mph - -   Partly Cloudy
9:55 AM 50.0 °F - 42.8 °F 76% 30.06 in 6.2 mi West 11.5 mph - N/A   Scattered Clouds
10:00 AM 50 °F - 42 °F 67%  in 19 mi West 11.5 mph - -   Partly Cloudy
10:55 AM 51.8 °F - 42.8 °F 71% 30.09 in 6.2 mi West 9.2 mph - N/A   Mostly Cloudy
11:00 AM 51 °F - 44 °F 68%  in 19 mi West 9.2 mph - -   Mostly Cloudy
11:55 AM 51.8 °F - 46.4 °F 82% 30.12 in 1.2 mi Calm Calm - N/A   Mostly Cloudy
12:00 PM 53 °F - 46 °F 68%  in 1 mi Calm Calm - -   Mist
12:55 PM 51.8 °F - 44.6 °F 76% 30.12 in 1.2 mi Calm Calm - N/A   Mostly Cloudy
1:00 PM 53 °F - 45 °F 67%  in 1 mi Calm Calm - -   Mist
1:55 PM 51.8 °F - 46.4 °F 82% 30.12 in 6.2 mi WSW 6.9 mph - N/A   Mostly Cloudy
2:00 PM 52 °F - 46 °F 73%  in 12 mi WSW 6.9 mph - -   Mostly Cloudy
2:55 PM 51.8 °F - 46.4 °F 82% 30.15 in 6.2 mi West 6.9 mph - N/A   Mostly Cloudy
3:00 PM 52 °F - 47 °F 78%  in 12 mi West 6.9 mph - -   Mostly Cloudy
3:55 PM 51.8 °F - 46.4 °F 82% 30.15 in 6.2 mi NNW 5.8 mph - N/A   Mostly Cloudy
4:55 PM 51.8 °F - 48.2 °F 88% 30.15 in 0.1 mi North 8.1 mph - N/A Fog Fog
5:55 PM 51.8 °F - 46.4 °F 82% 30.15 in 0.1 mi NNE 4.6 mph - N/A Fog Fog
6:00 PM 51 °F - 47 °F 82%  in 0 mi NNE 4.6 mph - - Fog Heavy Fog
6:55 PM 50.0 °F - 46.4 °F 87% 30.15 in 0.1 mi Calm Calm - N/A Fog Fog
7:00 PM 50 °F - 47 °F 86%  in 0 mi Calm Calm - - Fog Heavy Fog
7:55 PM 50.0 °F - 46.4 °F 87% 30.15 in 0.1 mi North 5.8 mph - N/A Fog Fog
8:00 PM 49 °F - 46 °F 87%  in 0 mi North 11.2 mph - - Fog Heavy Fog
8:55 PM 48.2 °F - 48.2 °F 100% 30.21 in 0.1 mi North 4.6 mph - N/A Fog Fog
9:00 PM 49 °F - 48 °F 94%  in 0 mi North 8.9 mph - - Fog Heavy Fog
9:55 PM 48.2 °F - 44.6 °F 87% 30.21 in - North 6.9 mph - N/A   Clear
10:00 PM 48 °F - 44 °F 82%  in 19 mi North 6.9 mph - - Fog Light Fog
10:55 PM 48.2 °F - 41.0 °F 76% 30.21 in - North 5.8 mph - N/A   Clear
11:55 PM 48.2 °F - 41.0 °F 76% 30.21 in - North 8.1 mph - N/A   Clear